owner,sensor,date,latitude,longitude,air_pressure(mBar),qcFlag 
WAVCIS,ioos:station:WAVCIS:CSI06:1,2013-06-01T00:00:00Z,28.8667,-90.4833,1014.76,11111222 
WAVCIS,ioos:station:WAVCIS:CSI06:1,2013-06-01T01:00:00Z,28.8667,-90.4833,1014.75,11111222 
WAVCIS,ioos:station:WAVCIS:CSI06:1,2013-06-01T02:00:00Z,28.8667,-90.4833,1014.85,11111222 
WAVCIS,ioos:station:WAVCIS:CSI06:1,2013-06-01T03:00:00Z,28.8667,-90.4833,1015.04,11111222 
WAVCIS,ioos:station:WAVCIS:CSI06:1,2013-06-01T04:00:00Z,28.8667,-90.4833,1015.01,11111222 
WAVCIS,ioos:station:WAVCIS:CSI06:1,2013-06-01T05:00:00Z,28.8667,-90.4833,1014.44,11111222 
WAVCIS,ioos:station:WAVCIS:CSI06:1,2013-06-01T06:00:00Z,28.8667,-90.4833,1014.42,11111222 
WAVCIS,ioos:station:WAVCIS:CSI06:1,2013-06-01T07:00:00Z,28.8667,-90.4833,1014.32,11111222 
WAVCIS,ioos:station:WAVCIS:CSI06:1,2013-06-01T08:00:00Z,28.8667,-90.4833,1014.27,11111222 
WAVCIS,ioos:station:WAVCIS:CSI06:1,2013-06-01T09:00:00Z,28.8667,-90.4833,1014.04,11111222 
WAVCIS,ioos:station:WAVCIS:CSI06:1,2013-06-01T10:00:00Z,28.8667,-90.4833,1013.8,11111222 
WAVCIS,ioos:station:WAVCIS:CSI06:1,2013-06-01T11:00:00Z,28.8667,-90.4833,1014.09,11111222 
WAVCIS,ioos:station:WAVCIS:CSI06:1,2013-06-01T12:00:00Z,28.8667,-90.4833,1014.05,11111222 
WAVCIS,ioos:station:WAVCIS:CSI06:1,2013-06-01T13:00:00Z,28.8667,-90.4833,1014.49,11111222 
WAVCIS,ioos:station:WAVCIS:CSI06:1,2013-06-01T14:00:00Z,28.8667,-90.4833,1014.82,11111222 
WAVCIS,ioos:station:WAVCIS:CSI06:1,2013-06-01T15:00:00Z,28.8667,-90.4833,1015.05,11111222 
WAVCIS,ioos:station:WAVCIS:CSI06:1,2013-06-01T16:00:00Z,28.8667,-90.4833,1015.33,11111222 
WAVCIS,ioos:station:WAVCIS:CSI06:1,2013-06-01T17:00:00Z,28.8667,-90.4833,1015.49,11111222 
WAVCIS,ioos:station:WAVCIS:CSI06:1,2013-06-01T18:00:00Z,28.8667,-90.4833,1015.63,11111222 
WAVCIS,ioos:station:WAVCIS:CSI06:1,2013-06-01T19:00:00Z,28.8667,-90.4833,1015.45,11111222 
WAVCIS,ioos:station:WAVCIS:CSI06:1,2013-06-01T20:00:00Z,28.8667,-90.4833,1015.29,11111222 
WAVCIS,ioos:station:WAVCIS:CSI06:1,2013-06-01T21:00:00Z,28.8667,-90.4833,1014.91,11111222 
WAVCIS,ioos:station:WAVCIS:CSI06:1,2013-06-01T22:00:00Z,28.8667,-90.4833,1014.29,11111222 
WAVCIS,ioos:station:WAVCIS:CSI06:1,2013-06-01T23:00:00Z,28.8667,-90.4833,1013.94,11111222 
WAVCIS,ioos:station:WAVCIS:CSI06:1,2013-06-02T00:00:00Z,28.8667,-90.4833,1013.61,11111222 
WAVCIS,ioos:station:WAVCIS:CSI06:1,2013-06-02T01:00:00Z,28.8667,-90.4833,1013.57,11111222 
WAVCIS,ioos:station:WAVCIS:CSI06:1,2013-06-02T02:00:00Z,28.8667,-90.4833,1013.88,11111222 
WAVCIS,ioos:station:WAVCIS:CSI06:1,2013-06-02T03:00:00Z,28.8667,-90.4833,1014.23,11111222 
WAVCIS,ioos:station:WAVCIS:CSI06:1,2013-06-02T04:00:00Z,28.8667,-90.4833,1014.33,11111222 
WAVCIS,ioos:station:WAVCIS:CSI06:1,2013-06-02T05:00:00Z,28.8667,-90.4833,1014.4,11111222 
WAVCIS,ioos:station:WAVCIS:CSI06:1,2013-06-02T06:00:00Z,28.8667,-90.4833,1014.49,11111222 
WAVCIS,ioos:station:WAVCIS:CSI06:1,2013-06-02T07:00:00Z,28.8667,-90.4833,1014.21,11111222 
WAVCIS,ioos:station:WAVCIS:CSI06:1,2013-06-02T08:00:00Z,28.8667,-90.4833,1014.25,11111222 
WAVCIS,ioos:station:WAVCIS:CSI06:1,2013-06-02T09:00:00Z,28.8667,-90.4833,1013.99,11111222 
WAVCIS,ioos:station:WAVCIS:CSI06:1,2013-06-02T10:00:00Z,28.8667,-90.4833,1013.95,11111222 
WAVCIS,ioos:station:WAVCIS:CSI06:1,2013-06-02T11:00:00Z,28.8667,-90.4833,1014.69,11111222 
WAVCIS,ioos:station:WAVCIS:CSI06:1,2013-06-02T12:00:00Z,28.8667,-90.4833,1014.68,11111222 
WAVCIS,ioos:station:WAVCIS:CSI06:1,2013-06-02T13:00:00Z,28.8667,-90.4833,1014.98,11111222 
WAVCIS,ioos:station:WAVCIS:CSI06:1,2013-06-02T14:00:00Z,28.8667,-90.4833,1015.14,11111222 
WAVCIS,ioos:station:WAVCIS:CSI06:1,2013-06-02T15:00:00Z,28.8667,-90.4833,1015.02,11111222 
WAVCIS,ioos:station:WAVCIS:CSI06:1,2013-06-02T16:00:00Z,28.8667,-90.4833,1015.4,11111222 
WAVCIS,ioos:station:WAVCIS:CSI06:1,2013-06-02T17:00:00Z,28.8667,-90.4833,1015.48,11111222 
WAVCIS,ioos:station:WAVCIS:CSI06:1,2013-06-02T18:00:00Z,28.8667,-90.4833,1014.5,11111222 
WAVCIS,ioos:station:WAVCIS:CSI06:1,2013-06-02T19:00:00Z,28.8667,-90.4833,1014.11,11111222 
WAVCIS,ioos:station:WAVCIS:CSI06:1,2013-06-02T20:00:00Z,28.8667,-90.4833,1013.13,11111222 
WAVCIS,ioos:station:WAVCIS:CSI06:1,2013-06-02T21:00:00Z,28.8667,-90.4833,1013.61,11111222 
WAVCIS,ioos:station:WAVCIS:CSI06:1,2013-06-02T22:00:00Z,28.8667,-90.4833,1013.09,11111222 
WAVCIS,ioos:station:WAVCIS:CSI06:1,2013-06-02T23:00:00Z,28.8667,-90.4833,1010.39,11111222 
WAVCIS,ioos:station:WAVCIS:CSI06:1,2013-06-03T00:00:00Z,28.8667,-90.4833,1011.48,11111222 
WAVCIS,ioos:station:WAVCIS:CSI06:1,2013-06-03T01:00:00Z,28.8667,-90.4833,1012.31,11111222 
WAVCIS,ioos:station:WAVCIS:CSI06:1,2013-06-03T02:00:00Z,28.8667,-90.4833,1012.88,11111222 
WAVCIS,ioos:station:WAVCIS:CSI06:1,2013-06-03T03:00:00Z,28.8667,-90.4833,1013.1,11111222 
WAVCIS,ioos:station:WAVCIS:CSI06:1,2013-06-03T04:00:00Z,28.8667,-90.4833,1013.15,11111222 
WAVCIS,ioos:station:WAVCIS:CSI06:1,2013-06-03T05:00:00Z,28.8667,-90.4833,1013.09,11111222 
WAVCIS,ioos:station:WAVCIS:CSI06:1,2013-06-03T06:00:00Z,28.8667,-90.4833,1012.62,11111222 
WAVCIS,ioos:station:WAVCIS:CSI06:1,2013-06-03T07:00:00Z,28.8667,-90.4833,1012.01,11111222 
WAVCIS,ioos:station:WAVCIS:CSI06:1,2013-06-03T08:00:00Z,28.8667,-90.4833,1011.68,11111222 
WAVCIS,ioos:station:WAVCIS:CSI06:1,2013-06-03T09:00:00Z,28.8667,-90.4833,1011.92,11111222 
WAVCIS,ioos:station:WAVCIS:CSI06:1,2013-06-03T10:00:00Z,28.8667,-90.4833,1012.2,11111222 
WAVCIS,ioos:station:WAVCIS:CSI06:1,2013-06-03T11:00:00Z,28.8667,-90.4833,1012.56,11111222 
WAVCIS,ioos:station:WAVCIS:CSI06:1,2013-06-03T12:00:00Z,28.8667,-90.4833,1013.22,11111222 
WAVCIS,ioos:station:WAVCIS:CSI06:1,2013-06-03T13:00:00Z,28.8667,-90.4833,1013.4,11111222 
WAVCIS,ioos:station:WAVCIS:CSI06:1,2013-06-03T14:00:00Z,28.8667,-90.4833,1013.77,11111222 
WAVCIS,ioos:station:WAVCIS:CSI06:1,2013-06-03T15:00:00Z,28.8667,-90.4833,1013.59,11111222 
WAVCIS,ioos:station:WAVCIS:CSI06:1,2013-06-03T16:00:00Z,28.8667,-90.4833,1013.59,11111222 
WAVCIS,ioos:station:WAVCIS:CSI06:1,2013-06-03T17:00:00Z,28.8667,-90.4833,1013.31,11111222 
WAVCIS,ioos:station:WAVCIS:CSI06:1,2013-06-03T18:00:00Z,28.8667,-90.4833,1012.85,11111222 
WAVCIS,ioos:station:WAVCIS:CSI06:1,2013-06-03T19:00:00Z,28.8667,-90.4833,1012.44,11111222 
WAVCIS,ioos:station:WAVCIS:CSI06:1,2013-06-03T20:00:00Z,28.8667,-90.4833,1012.06,11111222 
WAVCIS,ioos:station:WAVCIS:CSI06:1,2013-06-03T21:00:00Z,28.8667,-90.4833,1011.47,11111222 
WAVCIS,ioos:station:WAVCIS:CSI06:1,2013-06-03T22:00:00Z,28.8667,-90.4833,1011.29,11111222 
WAVCIS,ioos:station:WAVCIS:CSI06:1,2013-06-03T23:00:00Z,28.8667,-90.4833,1011.06,11111222 
WAVCIS,ioos:station:WAVCIS:CSI06:1,2013-06-04T00:00:00Z,28.8667,-90.4833,1011.44,11111222 
WAVCIS,ioos:station:WAVCIS:CSI06:1,2013-06-04T01:00:00Z,28.8667,-90.4833,1011.75,11111222 
WAVCIS,ioos:station:WAVCIS:CSI06:1,2013-06-04T02:00:00Z,28.8667,-90.4833,1012.19,11111222 
WAVCIS,ioos:station:WAVCIS:CSI06:1,2013-06-04T03:00:00Z,28.8667,-90.4833,1012.48,11111222 
WAVCIS,ioos:station:WAVCIS:CSI06:1,2013-06-04T04:00:00Z,28.8667,-90.4833,1012.52,11111222 
WAVCIS,ioos:station:WAVCIS:CSI06:1,2013-06-04T05:00:00Z,28.8667,-90.4833,1012.77,11111222 
WAVCIS,ioos:station:WAVCIS:CSI06:1,2013-06-04T06:00:00Z,28.8667,-90.4833,1012.29,11111222 
WAVCIS,ioos:station:WAVCIS:CSI06:1,2013-06-04T07:00:00Z,28.8667,-90.4833,1011.82,11111222 
WAVCIS,ioos:station:WAVCIS:CSI06:1,2013-06-04T08:00:00Z,28.8667,-90.4833,1011.73,11111222 
WAVCIS,ioos:station:WAVCIS:CSI06:1,2013-06-04T09:00:00Z,28.8667,-90.4833,1011.85,11111222 
WAVCIS,ioos:station:WAVCIS:CSI06:1,2013-06-04T10:00:00Z,28.8667,-90.4833,1012.07,11111222 
WAVCIS,ioos:station:WAVCIS:CSI06:1,2013-06-04T11:00:00Z,28.8667,-90.4833,1012.44,11111222 
WAVCIS,ioos:station:WAVCIS:CSI06:1,2013-06-04T12:00:00Z,28.8667,-90.4833,1012.83,11111222 
WAVCIS,ioos:station:WAVCIS:CSI06:1,2013-06-04T13:00:00Z,28.8667,-90.4833,1012.93,11111222 
WAVCIS,ioos:station:WAVCIS:CSI06:1,2013-06-04T14:00:00Z,28.8667,-90.4833,1013.0,11111222 
WAVCIS,ioos:station:WAVCIS:CSI06:1,2013-06-04T15:00:00Z,28.8667,-90.4833,1013.21,11111222 
WAVCIS,ioos:station:WAVCIS:CSI06:1,2013-06-04T16:00:00Z,28.8667,-90.4833,1013.46,11111222 
WAVCIS,ioos:station:WAVCIS:CSI06:1,2013-06-04T17:00:00Z,28.8667,-90.4833,1013.39,11111222 
WAVCIS,ioos:station:WAVCIS:CSI06:1,2013-06-04T18:00:00Z,28.8667,-90.4833,1013.3,11111222 
WAVCIS,ioos:station:WAVCIS:CSI06:1,2013-06-04T19:00:00Z,28.8667,-90.4833,1013.08,11111222 
WAVCIS,ioos:station:WAVCIS:CSI06:1,2013-06-04T20:00:00Z,28.8667,-90.4833,1012.56,11111222 
WAVCIS,ioos:station:WAVCIS:CSI06:1,2013-06-04T21:00:00Z,28.8667,-90.4833,1012.21,11111222 
WAVCIS,ioos:station:WAVCIS:CSI06:1,2013-06-04T22:00:00Z,28.8667,-90.4833,1011.56,11111222 
WAVCIS,ioos:station:WAVCIS:CSI06:1,2013-06-04T23:00:00Z,28.8667,-90.4833,1011.03,11111222 
WAVCIS,ioos:station:WAVCIS:CSI06:1,2013-06-05T00:00:00Z,28.8667,-90.4833,1011.3,11111222 
WAVCIS,ioos:station:WAVCIS:CSI06:1,2013-06-05T01:00:00Z,28.8667,-90.4833,1011.69,11111222 
WAVCIS,ioos:station:WAVCIS:CSI06:1,2013-06-05T02:00:00Z,28.8667,-90.4833,1011.99,11111222 
WAVCIS,ioos:station:WAVCIS:CSI06:1,2013-06-05T03:00:00Z,28.8667,-90.4833,1012.46,11111222 
WAVCIS,ioos:station:WAVCIS:CSI06:1,2013-06-05T04:00:00Z,28.8667,-90.4833,1012.69,11111222 
WAVCIS,ioos:station:WAVCIS:CSI06:1,2013-06-05T05:00:00Z,28.8667,-90.4833,1012.48,11111222 
WAVCIS,ioos:station:WAVCIS:CSI06:1,2013-06-05T06:00:00Z,28.8667,-90.4833,1011.99,11111222 
WAVCIS,ioos:station:WAVCIS:CSI06:1,2013-06-05T07:00:00Z,28.8667,-90.4833,1011.55,11111222 
WAVCIS,ioos:station:WAVCIS:CSI06:1,2013-06-05T08:00:00Z,28.8667,-90.4833,1011.1,11111222 
WAVCIS,ioos:station:WAVCIS:CSI06:1,2013-06-05T09:00:00Z,28.8667,-90.4833,1010.92,11111222 
WAVCIS,ioos:station:WAVCIS:CSI06:1,2013-06-05T10:00:00Z,28.8667,-90.4833,1011.03,11111222 
WAVCIS,ioos:station:WAVCIS:CSI06:1,2013-06-05T11:00:00Z,28.8667,-90.4833,1011.51,11111222 
WAVCIS,ioos:station:WAVCIS:CSI06:1,2013-06-05T12:00:00Z,28.8667,-90.4833,1011.66,11111222 
WAVCIS,ioos:station:WAVCIS:CSI06:1,2013-06-05T13:00:00Z,28.8667,-90.4833,1011.68,11111222 
WAVCIS,ioos:station:WAVCIS:CSI06:1,2013-06-05T14:00:00Z,28.8667,-90.4833,1012.2,11111222 
WAVCIS,ioos:station:WAVCIS:CSI06:1,2013-06-05T15:00:00Z,28.8667,-90.4833,1012.33,11111222 
WAVCIS,ioos:station:WAVCIS:CSI06:1,2013-06-05T16:00:00Z,28.8667,-90.4833,1012.34,11111222 
WAVCIS,ioos:station:WAVCIS:CSI06:1,2013-06-05T17:00:00Z,28.8667,-90.4833,1012.44,11111222 
WAVCIS,ioos:station:WAVCIS:CSI06:1,2013-06-05T18:00:00Z,28.8667,-90.4833,1012.21,11111222 
WAVCIS,ioos:station:WAVCIS:CSI06:1,2013-06-05T19:00:00Z,28.8667,-90.4833,1011.88,11111222 
WAVCIS,ioos:station:WAVCIS:CSI06:1,2013-06-05T20:00:00Z,28.8667,-90.4833,1011.21,11111222 
WAVCIS,ioos:station:WAVCIS:CSI06:1,2013-06-05T21:00:00Z,28.8667,-90.4833,1010.41,11111222 
WAVCIS,ioos:station:WAVCIS:CSI06:1,2013-06-05T22:00:00Z,28.8667,-90.4833,1010.18,11111222 
WAVCIS,ioos:station:WAVCIS:CSI06:1,2013-06-05T23:00:00Z,28.8667,-90.4833,1009.85,11111222 
WAVCIS,ioos:station:WAVCIS:CSI06:1,2013-06-06T00:00:00Z,28.8667,-90.4833,1009.82,11111222 
WAVCIS,ioos:station:WAVCIS:CSI06:1,2013-06-06T01:00:00Z,28.8667,-90.4833,1009.97,11111222 
WAVCIS,ioos:station:WAVCIS:CSI06:1,2013-06-06T02:00:00Z,28.8667,-90.4833,1010.3,11111222 
WAVCIS,ioos:station:WAVCIS:CSI06:1,2013-06-06T03:00:00Z,28.8667,-90.4833,1010.22,11111222 
WAVCIS,ioos:station:WAVCIS:CSI06:1,2013-06-06T04:00:00Z,28.8667,-90.4833,1010.08,11111222 
WAVCIS,ioos:station:WAVCIS:CSI06:1,2013-06-06T05:00:00Z,28.8667,-90.4833,1010.32,11111222 
WAVCIS,ioos:station:WAVCIS:CSI06:1,2013-06-06T06:00:00Z,28.8667,-90.4833,1009.95,11111222 
WAVCIS,ioos:station:WAVCIS:CSI06:1,2013-06-06T07:00:00Z,28.8667,-90.4833,1009.62,11111222 
WAVCIS,ioos:station:WAVCIS:CSI06:1,2013-06-06T08:00:00Z,28.8667,-90.4833,1009.38,11111222 
WAVCIS,ioos:station:WAVCIS:CSI06:1,2013-06-06T09:00:00Z,28.8667,-90.4833,1009.32,11111222 
WAVCIS,ioos:station:WAVCIS:CSI06:1,2013-06-06T10:00:00Z,28.8667,-90.4833,1009.18,11111222 
WAVCIS,ioos:station:WAVCIS:CSI06:1,2013-06-06T11:00:00Z,28.8667,-90.4833,1008.71,11111222 
WAVCIS,ioos:station:WAVCIS:CSI06:1,2013-06-06T12:00:00Z,28.8667,-90.4833,1009.18,11111222 
WAVCIS,ioos:station:WAVCIS:CSI06:1,2013-06-06T13:00:00Z,28.8667,-90.4833,1009.72,11111222 
WAVCIS,ioos:station:WAVCIS:CSI06:1,2013-06-06T14:00:00Z,28.8667,-90.4833,1010.49,11111222 
WAVCIS,ioos:station:WAVCIS:CSI06:1,2013-06-06T15:00:00Z,28.8667,-90.4833,1011.02,11111222 
WAVCIS,ioos:station:WAVCIS:CSI06:1,2013-06-06T16:00:00Z,28.8667,-90.4833,1010.81,11111222 
WAVCIS,ioos:station:WAVCIS:CSI06:1,2013-06-06T17:00:00Z,28.8667,-90.4833,1010.78,11111222 
WAVCIS,ioos:station:WAVCIS:CSI06:1,2013-06-06T18:00:00Z,28.8667,-90.4833,1010.98,11111222 
WAVCIS,ioos:station:WAVCIS:CSI06:1,2013-06-06T19:00:00Z,28.8667,-90.4833,1009.89,11111222 
WAVCIS,ioos:station:WAVCIS:CSI06:1,2013-06-06T20:00:00Z,28.8667,-90.4833,1009.06,11111222 
WAVCIS,ioos:station:WAVCIS:CSI06:1,2013-06-06T21:00:00Z,28.8667,-90.4833,1008.85,11111222 
WAVCIS,ioos:station:WAVCIS:CSI06:1,2013-06-06T22:00:00Z,28.8667,-90.4833,1009.09,11111222 
WAVCIS,ioos:station:WAVCIS:CSI06:1,2013-06-06T23:00:00Z,28.8667,-90.4833,1009.14,11111222 
WAVCIS,ioos:station:WAVCIS:CSI06:1,2013-06-07T00:00:00Z,28.8667,-90.4833,1009.32,11111222 
WAVCIS,ioos:station:WAVCIS:CSI06:1,2013-06-07T01:00:00Z,28.8667,-90.4833,1008.62,11111222 
WAVCIS,ioos:station:WAVCIS:CSI06:1,2013-06-07T02:00:00Z,28.8667,-90.4833,1008.96,11111222 
WAVCIS,ioos:station:WAVCIS:CSI06:1,2013-06-07T03:00:00Z,28.8667,-90.4833,1009.88,11111222 
WAVCIS,ioos:station:WAVCIS:CSI06:1,2013-06-07T04:00:00Z,28.8667,-90.4833,1011.29,11111222 
WAVCIS,ioos:station:WAVCIS:CSI06:1,2013-06-07T05:00:00Z,28.8667,-90.4833,1011.31,11111222 
WAVCIS,ioos:station:WAVCIS:CSI06:1,2013-06-07T06:00:00Z,28.8667,-90.4833,1011.69,11111222 
WAVCIS,ioos:station:WAVCIS:CSI06:1,2013-06-07T07:00:00Z,28.8667,-90.4833,1010.78,11111222 
WAVCIS,ioos:station:WAVCIS:CSI06:1,2013-06-07T08:00:00Z,28.8667,-90.4833,1008.53,11111222 
WAVCIS,ioos:station:WAVCIS:CSI06:1,2013-06-07T09:00:00Z,28.8667,-90.4833,1009.31,11111222 
WAVCIS,ioos:station:WAVCIS:CSI06:1,2013-06-07T10:00:00Z,28.8667,-90.4833,1009.69,11111222 
WAVCIS,ioos:station:WAVCIS:CSI06:1,2013-06-07T11:00:00Z,28.8667,-90.4833,1010.31,11111222 
WAVCIS,ioos:station:WAVCIS:CSI06:1,2013-06-07T12:00:00Z,28.8667,-90.4833,1010.93,11111222 
WAVCIS,ioos:station:WAVCIS:CSI06:1,2013-06-07T13:00:00Z,28.8667,-90.4833,1011.66,11111222 
WAVCIS,ioos:station:WAVCIS:CSI06:1,2013-06-07T14:00:00Z,28.8667,-90.4833,1012.2,11111222 
WAVCIS,ioos:station:WAVCIS:CSI06:1,2013-06-07T15:00:00Z,28.8667,-90.4833,1012.69,11111222 
WAVCIS,ioos:station:WAVCIS:CSI06:1,2013-06-07T16:00:00Z,28.8667,-90.4833,1012.97,11111222 
WAVCIS,ioos:station:WAVCIS:CSI06:1,2013-06-07T17:00:00Z,28.8667,-90.4833,1013.11,11111222 
WAVCIS,ioos:station:WAVCIS:CSI06:1,2013-06-07T18:00:00Z,28.8667,-90.4833,1012.85,11111222 
WAVCIS,ioos:station:WAVCIS:CSI06:1,2013-06-07T19:00:00Z,28.8667,-90.4833,1012.42,11111222 
WAVCIS,ioos:station:WAVCIS:CSI06:1,2013-06-07T20:00:00Z,28.8667,-90.4833,1011.9,11111222 
WAVCIS,ioos:station:WAVCIS:CSI06:1,2013-06-07T21:00:00Z,28.8667,-90.4833,1011.54,11111222 
WAVCIS,ioos:station:WAVCIS:CSI06:1,2013-06-07T22:00:00Z,28.8667,-90.4833,1011.32,11111222 
WAVCIS,ioos:station:WAVCIS:CSI06:1,2013-06-07T23:00:00Z,28.8667,-90.4833,1010.95,11111222 
WAVCIS,ioos:station:WAVCIS:CSI06:1,2013-06-08T00:00:00Z,28.8667,-90.4833,1011.15,11111222 
WAVCIS,ioos:station:WAVCIS:CSI06:1,2013-06-08T01:00:00Z,28.8667,-90.4833,1011.21,11111222 
WAVCIS,ioos:station:WAVCIS:CSI06:1,2013-06-08T02:00:00Z,28.8667,-90.4833,1011.7,11111222 
WAVCIS,ioos:station:WAVCIS:CSI06:1,2013-06-08T03:00:00Z,28.8667,-90.4833,1012.67,11111222 
WAVCIS,ioos:station:WAVCIS:CSI06:1,2013-06-08T04:00:00Z,28.8667,-90.4833,1013.39,11111222 
WAVCIS,ioos:station:WAVCIS:CSI06:1,2013-06-08T05:00:00Z,28.8667,-90.4833,1013.39,11111222 
WAVCIS,ioos:station:WAVCIS:CSI06:1,2013-06-08T06:00:00Z,28.8667,-90.4833,1013.17,11111222 
WAVCIS,ioos:station:WAVCIS:CSI06:1,2013-06-08T07:00:00Z,28.8667,-90.4833,1013.17,11111222 
WAVCIS,ioos:station:WAVCIS:CSI06:1,2013-06-08T08:00:00Z,28.8667,-90.4833,1012.88,11111222 
WAVCIS,ioos:station:WAVCIS:CSI06:1,2013-06-08T09:00:00Z,28.8667,-90.4833,1012.72,11111222 
WAVCIS,ioos:station:WAVCIS:CSI06:1,2013-06-08T10:00:00Z,28.8667,-90.4833,1012.39,11111222 
WAVCIS,ioos:station:WAVCIS:CSI06:1,2013-06-08T11:00:00Z,28.8667,-90.4833,1013.11,11111222 
WAVCIS,ioos:station:WAVCIS:CSI06:1,2013-06-08T12:00:00Z,28.8667,-90.4833,1013.51,11111222 
WAVCIS,ioos:station:WAVCIS:CSI06:1,2013-06-08T13:00:00Z,28.8667,-90.4833,1013.74,11111222 
WAVCIS,ioos:station:WAVCIS:CSI06:1,2013-06-08T14:00:00Z,28.8667,-90.4833,1014.39,11111222 
WAVCIS,ioos:station:WAVCIS:CSI06:1,2013-06-08T15:00:00Z,28.8667,-90.4833,1014.63,11111222 
WAVCIS,ioos:station:WAVCIS:CSI06:1,2013-06-08T16:00:00Z,28.8667,-90.4833,1014.89,11111222 
WAVCIS,ioos:station:WAVCIS:CSI06:1,2013-06-08T17:00:00Z,28.8667,-90.4833,1014.82,11111222 
WAVCIS,ioos:station:WAVCIS:CSI06:1,2013-06-08T18:00:00Z,28.8667,-90.4833,1014.81,11111222 
WAVCIS,ioos:station:WAVCIS:CSI06:1,2013-06-08T19:00:00Z,28.8667,-90.4833,1014.27,11111222 
WAVCIS,ioos:station:WAVCIS:CSI06:1,2013-06-08T20:00:00Z,28.8667,-90.4833,1013.93,11111222 
WAVCIS,ioos:station:WAVCIS:CSI06:1,2013-06-08T21:00:00Z,28.8667,-90.4833,1013.65,11111222 
WAVCIS,ioos:station:WAVCIS:CSI06:1,2013-06-08T22:00:00Z,28.8667,-90.4833,1013.5,11111222 
WAVCIS,ioos:station:WAVCIS:CSI06:1,2013-06-08T23:00:00Z,28.8667,-90.4833,1013.24,11111222 
WAVCIS,ioos:station:WAVCIS:CSI06:1,2013-06-09T00:00:00Z,28.8667,-90.4833,1013.43,11111222 
WAVCIS,ioos:station:WAVCIS:CSI06:1,2013-06-09T01:00:00Z,28.8667,-90.4833,1013.65,11111222 
WAVCIS,ioos:station:WAVCIS:CSI06:1,2013-06-09T02:00:00Z,28.8667,-90.4833,1013.43,11111222 
WAVCIS,ioos:station:WAVCIS:CSI06:1,2013-06-09T03:00:00Z,28.8667,-90.4833,1013.81,11111222 
WAVCIS,ioos:station:WAVCIS:CSI06:1,2013-06-09T04:00:00Z,28.8667,-90.4833,1014.46,11111222 
WAVCIS,ioos:station:WAVCIS:CSI06:1,2013-06-09T05:00:00Z,28.8667,-90.4833,1014.79,11111222 
WAVCIS,ioos:station:WAVCIS:CSI06:1,2013-06-09T06:00:00Z,28.8667,-90.4833,1014.47,11111222 
WAVCIS,ioos:station:WAVCIS:CSI06:1,2013-06-09T07:00:00Z,28.8667,-90.4833,1014.22,11111222 
WAVCIS,ioos:station:WAVCIS:CSI06:1,2013-06-09T08:00:00Z,28.8667,-90.4833,1014.02,11111222 
WAVCIS,ioos:station:WAVCIS:CSI06:1,2013-06-09T09:00:00Z,28.8667,-90.4833,1013.69,11111222 
WAVCIS,ioos:station:WAVCIS:CSI06:1,2013-06-09T10:00:00Z,28.8667,-90.4833,1013.81,11111222 
WAVCIS,ioos:station:WAVCIS:CSI06:1,2013-06-09T11:00:00Z,28.8667,-90.4833,1013.94,11111222 
WAVCIS,ioos:station:WAVCIS:CSI06:1,2013-06-09T12:00:00Z,28.8667,-90.4833,1014.05,11111222 
WAVCIS,ioos:station:WAVCIS:CSI06:1,2013-06-09T13:00:00Z,28.8667,-90.4833,1014.58,11111222 
WAVCIS,ioos:station:WAVCIS:CSI06:1,2013-06-09T14:00:00Z,28.8667,-90.4833,1014.6,11111222 
WAVCIS,ioos:station:WAVCIS:CSI06:1,2013-06-09T15:00:00Z,28.8667,-90.4833,1014.77,11111222 
WAVCIS,ioos:station:WAVCIS:CSI06:1,2013-06-09T16:00:00Z,28.8667,-90.4833,1014.97,11111222 
WAVCIS,ioos:station:WAVCIS:CSI06:1,2013-06-09T17:00:00Z,28.8667,-90.4833,1015.43,11111222 
WAVCIS,ioos:station:WAVCIS:CSI06:1,2013-06-09T18:00:00Z,28.8667,-90.4833,1016.25,11111222 
WAVCIS,ioos:station:WAVCIS:CSI06:1,2013-06-09T19:00:00Z,28.8667,-90.4833,1016.9,11111222 
WAVCIS,ioos:station:WAVCIS:CSI06:1,2013-06-09T20:00:00Z,28.8667,-90.4833,1015.05,11111222 
WAVCIS,ioos:station:WAVCIS:CSI06:1,2013-06-09T21:00:00Z,28.8667,-90.4833,1014.59,11111222 
WAVCIS,ioos:station:WAVCIS:CSI06:1,2013-06-09T22:00:00Z,28.8667,-90.4833,1013.85,11111222 
WAVCIS,ioos:station:WAVCIS:CSI06:1,2013-06-09T23:00:00Z,28.8667,-90.4833,1014.22,11111222 
WAVCIS,ioos:station:WAVCIS:CSI06:1,2013-06-10T00:00:00Z,28.8667,-90.4833,1014.31,11111222 
WAVCIS,ioos:station:WAVCIS:CSI06:1,2013-06-10T01:00:00Z,28.8667,-90.4833,1014.47,11111222 
WAVCIS,ioos:station:WAVCIS:CSI06:1,2013-06-10T02:00:00Z,28.8667,-90.4833,1015.26,11111222 
WAVCIS,ioos:station:WAVCIS:CSI06:1,2013-06-10T03:00:00Z,28.8667,-90.4833,1015.72,11111222 
WAVCIS,ioos:station:WAVCIS:CSI06:1,2013-06-10T04:00:00Z,28.8667,-90.4833,1015.98,11111222 
WAVCIS,ioos:station:WAVCIS:CSI06:1,2013-06-10T05:00:00Z,28.8667,-90.4833,1016.27,11111222 
WAVCIS,ioos:station:WAVCIS:CSI06:1,2013-06-10T06:00:00Z,28.8667,-90.4833,1015.03,11111222 
WAVCIS,ioos:station:WAVCIS:CSI06:1,2013-06-10T07:00:00Z,28.8667,-90.4833,1014.46,11111222 
WAVCIS,ioos:station:WAVCIS:CSI06:1,2013-06-10T08:00:00Z,28.8667,-90.4833,1015.17,11111222 
WAVCIS,ioos:station:WAVCIS:CSI06:1,2013-06-10T09:00:00Z,28.8667,-90.4833,1015.37,11111222 
WAVCIS,ioos:station:WAVCIS:CSI06:1,2013-06-10T10:00:00Z,28.8667,-90.4833,1015.34,11111222 
WAVCIS,ioos:station:WAVCIS:CSI06:1,2013-06-10T11:00:00Z,28.8667,-90.4833,1015.8,11111222 
WAVCIS,ioos:station:WAVCIS:CSI06:1,2013-06-10T12:00:00Z,28.8667,-90.4833,1015.84,11111222 
WAVCIS,ioos:station:WAVCIS:CSI06:1,2013-06-10T13:00:00Z,28.8667,-90.4833,1016.26,11111222 
WAVCIS,ioos:station:WAVCIS:CSI06:1,2013-06-10T14:00:00Z,28.8667,-90.4833,1017.04,11111222 
WAVCIS,ioos:station:WAVCIS:CSI06:1,2013-06-10T15:00:00Z,28.8667,-90.4833,1017.22,11111222 
WAVCIS,ioos:station:WAVCIS:CSI06:1,2013-06-10T16:00:00Z,28.8667,-90.4833,1017.67,11111222 
WAVCIS,ioos:station:WAVCIS:CSI06:1,2013-06-10T17:00:00Z,28.8667,-90.4833,1018.05,11111222 
WAVCIS,ioos:station:WAVCIS:CSI06:1,2013-06-10T18:00:00Z,28.8667,-90.4833,1017.53,11111222 
WAVCIS,ioos:station:WAVCIS:CSI06:1,2013-06-10T19:00:00Z,28.8667,-90.4833,1017.06,11111222 
WAVCIS,ioos:station:WAVCIS:CSI06:1,2013-06-10T20:00:00Z,28.8667,-90.4833,1016.65,11111222 
WAVCIS,ioos:station:WAVCIS:CSI06:1,2013-06-10T21:00:00Z,28.8667,-90.4833,1017.08,11111222 
WAVCIS,ioos:station:WAVCIS:CSI06:1,2013-06-10T22:00:00Z,28.8667,-90.4833,1016.93,11111222 
WAVCIS,ioos:station:WAVCIS:CSI06:1,2013-06-10T23:00:00Z,28.8667,-90.4833,1016.61,11111222 
WAVCIS,ioos:station:WAVCIS:CSI06:1,2013-06-11T00:00:00Z,28.8667,-90.4833,1016.61,11111222 
WAVCIS,ioos:station:WAVCIS:CSI06:1,2013-06-11T01:00:00Z,28.8667,-90.4833,1016.39,11111222 
WAVCIS,ioos:station:WAVCIS:CSI06:1,2013-06-11T02:00:00Z,28.8667,-90.4833,1016.8,11111222 
WAVCIS,ioos:station:WAVCIS:CSI06:1,2013-06-11T03:00:00Z,28.8667,-90.4833,1017.05,11111222 
WAVCIS,ioos:station:WAVCIS:CSI06:1,2013-06-11T04:00:00Z,28.8667,-90.4833,1017.06,11111222 
WAVCIS,ioos:station:WAVCIS:CSI06:1,2013-06-11T05:00:00Z,28.8667,-90.4833,1017.06,11111222 
WAVCIS,ioos:station:WAVCIS:CSI06:1,2013-06-11T06:00:00Z,28.8667,-90.4833,1017.32,11111222 
WAVCIS,ioos:station:WAVCIS:CSI06:1,2013-06-11T07:00:00Z,28.8667,-90.4833,1017.01,11111222 
WAVCIS,ioos:station:WAVCIS:CSI06:1,2013-06-11T08:00:00Z,28.8667,-90.4833,1017.18,11111222 
WAVCIS,ioos:station:WAVCIS:CSI06:1,2013-06-11T09:00:00Z,28.8667,-90.4833,1017.2,11111222 
WAVCIS,ioos:station:WAVCIS:CSI06:1,2013-06-11T10:00:00Z,28.8667,-90.4833,1017.59,11111222 
WAVCIS,ioos:station:WAVCIS:CSI06:1,2013-06-11T11:00:00Z,28.8667,-90.4833,1017.91,11111222 
WAVCIS,ioos:station:WAVCIS:CSI06:1,2013-06-11T12:00:00Z,28.8667,-90.4833,1018.12,11111222 
WAVCIS,ioos:station:WAVCIS:CSI06:1,2013-06-11T13:00:00Z,28.8667,-90.4833,1018.41,11111222 
WAVCIS,ioos:station:WAVCIS:CSI06:1,2013-06-11T14:00:00Z,28.8667,-90.4833,1018.82,11111222 
WAVCIS,ioos:station:WAVCIS:CSI06:1,2013-06-11T15:00:00Z,28.8667,-90.4833,1019.09,11111222 
WAVCIS,ioos:station:WAVCIS:CSI06:1,2013-06-11T16:00:00Z,28.8667,-90.4833,1019.46,11111222 
WAVCIS,ioos:station:WAVCIS:CSI06:1,2013-06-11T17:00:00Z,28.8667,-90.4833,1019.51,11111222 
WAVCIS,ioos:station:WAVCIS:CSI06:1,2013-06-11T18:00:00Z,28.8667,-90.4833,1019.48,11111222 
WAVCIS,ioos:station:WAVCIS:CSI06:1,2013-06-11T19:00:00Z,28.8667,-90.4833,1019.22,11111222 
WAVCIS,ioos:station:WAVCIS:CSI06:1,2013-06-11T20:00:00Z,28.8667,-90.4833,1018.99,11111222 
WAVCIS,ioos:station:WAVCIS:CSI06:1,2013-06-11T21:00:00Z,28.8667,-90.4833,1018.44,11111222 
WAVCIS,ioos:station:WAVCIS:CSI06:1,2013-06-11T22:00:00Z,28.8667,-90.4833,1018.03,11111222 